Weather History for KMVY - April, 2013

Change the Weather History Date:

Thursday, April 4, 2013

  Actual Average Record
Temperature  
Mean Temperature 38 °F -  
Max Temperature 46 °F 53 °F 71 °F (1967)
Min Temperature 30 °F 35 °F 12 °F (1954)
Degree Days  
Heating Degree Days 28    
Moisture  
Dew Point 22 °F    
Average Humidity 54    
Maximum Humidity 79    
Minimum Humidity 33    
Precipitation  
Precipitation 0.00 in - - ()
Sea Level Pressure  
Sea Level Pressure 30.22 in    
Wind  
Wind Speed 12 mph (West)    
Max Wind Speed 18 mph    
Max Gust Speed 28 mph    
Visibility 10 miles    
Events      
Averages and records for this station are not official NWS values.
T = Trace of Precipitation, MM = Missing Value Source: NWS Daily Summary

Daily Weather History Graph

Daily Weather History Graph

Search for Another Location

Airport or City:

Trip Planner

Search our weather history database for the weather conditions in past years. The results will help you decide how hot, cold, wet, or windy it might be!

Date:

Astronomy

Apr. 04, 2013 Rise Set
Actual Time 6:20 AM EDT 7:11 PM EDT
Civil Twilight 5:52 AM EDT 7:39 PM EDT
Nautical Twilight 5:18 AM EDT 8:12 PM EDT
Astronomical Twilight 4:44 AM EDT 8:47 PM EDT
Moon 2:48 AM EDT (4/4) 1:22 PM EDT (4/4)
Length of Visible Light 13h 47m
Length of Day
12h 50m
Waning Crescent, 34% of the Moon is Illuminated
Apr 4
Waning Crescent
Apr 10
New
Apr 18
First Quarter
Apr 25
Full
May 2
Last Quarter

Hourly Weather History & Observations

Time (EDT) Temp. Windchill Dew Point Humidity Pressure Visibility Wind Dir Wind Speed Gust Speed Precip Events Conditions
12:53 AM 34.0 °F 25.0 °F 15.1 °F 46% 30.20 in 10.0 mi WNW 12.7 mph 23.0 mph N/A   Clear
1:53 AM 33.1 °F 24.4 °F 15.1 °F 48% 30.18 in 10.0 mi NW 11.5 mph 19.6 mph N/A   Clear
2:53 AM 33.1 °F 24.4 °F 16.0 °F 50% 30.19 in 10.0 mi NW 11.5 mph 18.4 mph N/A   Clear
3:53 AM 33.1 °F 24.9 °F 16.0 °F 50% 30.19 in 10.0 mi NW 10.4 mph 18.4 mph N/A   Clear
4:53 AM 32.0 °F 26.4 °F 16.0 °F 52% 30.21 in 10.0 mi NNW 5.8 mph - N/A   Clear
5:53 AM 30.9 °F 23.5 °F 17.1 °F 57% 30.25 in 10.0 mi NNW 8.1 mph - N/A   Clear
6:53 AM 32.0 °F 26.4 °F 17.1 °F 54% 30.29 in 10.0 mi WNW 5.8 mph - N/A   Clear
7:53 AM 36.0 °F 29.0 °F 18.0 °F 48% 30.31 in 10.0 mi WNW 9.2 mph - N/A   Clear
8:53 AM 37.9 °F 30.5 °F 19.0 °F 47% 30.32 in 10.0 mi WNW 11.5 mph 20.7 mph N/A   Clear
9:53 AM 39.0 °F 32.3 °F 18.0 °F 43% 30.32 in 10.0 mi WNW 10.4 mph 19.6 mph N/A   Clear
10:53 AM 41.0 °F 35.8 °F 18.0 °F 40% 30.30 in 10.0 mi WSW 8.1 mph - N/A   Clear
11:53 AM 42.1 °F 35.7 °F 18.0 °F 38% 30.28 in 10.0 mi West 11.5 mph 18.4 mph N/A   Clear
12:53 PM 45.0 °F 41.2 °F 17.1 °F 33% 30.27 in 10.0 mi West 6.9 mph - N/A   Clear
1:53 PM 45.0 °F 37.6 °F 19.0 °F 36% 30.26 in 10.0 mi SSW 17.3 mph 24.2 mph N/A   Clear
2:53 PM 44.1 °F 37.4 °F 17.1 °F 34% 30.24 in 10.0 mi SW 13.8 mph 19.6 mph N/A   Clear
3:53 PM 44.1 °F 36.2 °F 26.1 °F 49% 30.20 in 10.0 mi SW 18.4 mph - N/A   Clear
4:53 PM 42.1 °F 33.6 °F 27.0 °F 55% 30.19 in 10.0 mi SW 18.4 mph 26.5 mph N/A   Clear
5:53 PM 41.0 °F 33.9 °F 28.0 °F 60% 30.18 in 10.0 mi SW 12.7 mph - N/A   Clear
6:53 PM 39.0 °F 32.3 °F 28.0 °F 65% 30.18 in 10.0 mi SW 10.4 mph - N/A   Clear
7:53 PM 39.0 °F 30.6 °F 30.0 °F 70% 30.18 in 10.0 mi SW 15.0 mph 24.2 mph N/A   Clear
8:53 PM 39.0 °F 30.3 °F 30.9 °F 73% 30.19 in 10.0 mi SW 16.1 mph 23.0 mph N/A   Clear
9:53 PM 39.0 °F 31.0 °F 33.1 °F 79% 30.17 in 10.0 mi SW 13.8 mph 21.9 mph N/A   Clear
10:53 PM 39.9 °F 31.1 °F 34.0 °F 79% 30.15 in 10.0 mi SW 17.3 mph 27.6 mph N/A   Clear
11:53 PM 39.9 °F 31.1 °F 34.0 °F 79% 30.12 in 10.0 mi SSW 17.3 mph - N/A   Clear